AirNav   Air Wisconsin Up To $57,000 Bonus
 
 296 users online  

2WI6 Matson Airport
Stoughton, Wisconsin, USA

GOING TO STOUGHTON?


FAA INFORMATION EFFECTIVE 25 FEBRUARY 2021

Location

FAA Identifier: 2WI6
Lat/Long: 42-54-49.0070N 089-11-10.4140W
42-54.816783N 089-11.173567W
42.9136131,-89.1862261
(estimated)
Elevation: 915 ft. / 279 m (estimated)
Variation: 00W (1985)
From city: 2 miles E of STOUGHTON, WI
Time zone: UTC -6 (UTC -5 during Daylight Saving Time)
Zip code: 53589

Airport Operations

Airport use: Private use. Permission required prior to landing
Activation date: 04/1948
Control tower: no
ARTCC: CHICAGO CENTER
FSS: GREEN BAY FLIGHT SERVICE STATION
Attendance: UNATNDD
Wind indicator: yes
Segmented circle: no

Airport Communications

WX ASOS at MSN (15 nm NW): PHONE 608-249-0615
WX AWOS-3 at JVL (19 nm S): PHONE 608-758-1723
WX AWOS-3 at C29 (19 nm NW): 118.675 (608-833-1686)

Nearby radio navigation aids

VOR radial/distance  VOR name  Freq  Var
MSNr151/15.4MADISON VORTAC108.6003E
JVLr348/21.6JANESVILLE VOR/DME114.3003E

 
NDB name  Hdg/Dist  Freq  Var  ID
ROCK RIVER233/25.537101WRYV .-. -.-- ...-
JUNEAU215/37.534401WUNU ..- -. ..-

Airport Services

Airframe service: NONE
Powerplant service: NONE

Runway Information

Runway N/S

Dimensions: 2500 x 100 ft. / 762 x 30 m
Surface: turf
RUNWAY N  RUNWAY S
Traffic pattern: leftleft
Obstructions: trees
GRAVEL PITS AND TREES SOUTH OF RWY; ALSO, 350' TV TOWER 2 MILES SW.
trees

Airport Ownership and Management from official FAA records

Ownership: Privately-owned
Owner: MATSON DEVELOPERS, INC
PO BOX 333
STOUGHTON, WI 53589
Phone 608-873-8700
Manager: JOHN MATSON
839 US HWY 51
STOUGHTON, WI 53589
Phone 608-712-2353

Airport Operational Statistics

Aircraft based on the field: 25
Single engine airplanes: 25
    

Additional Remarks

FOR CD CTC CHICAGO ARTCC AT 630-906-8921.

Instrument Procedures

There are no published instrument procedures at 2WI6.

Some nearby airports with instrument procedures:

87Y - Blackhawk Airfield (11 nm N)
KMSN - Dane County Regional Airport-Truax Field (15 nm NW)
61C - Fort Atkinson Municipal Airport (16 nm E)
KJVL - Southern Wisconsin Regional Airport (19 nm S)
C29 - Middleton Municipal Airport - Morey Field (19 nm NW)
 
Loc | Ops | Rwys | IFR | FBO | Links
Com | Nav | Svcs | Stats | Notes
Area around 2WI6 (Matson Airport)
 
Road maps at: MapQuest Bing Google
 
Aerial photo
WARNING: Photo may not be current or correct
Aerial photo of 2WI6 (Matson Airport)
Photo by John Matson
Taken in October 1999
looking south.

Do you have a better or more recent aerial photo of Matson Airport that you would like to share? If so, please send us your photo.

 
Sectional chart

 
Airport distance calculator
Flying to Matson Airport? Find the distance to fly.

From to 2WI6

Sunrise and sunset
Times for 03-Mar-2021
 Local
(UTC-6)
 Zulu
(UTC)
Morning civil twilight06:0212:02
Sunrise06:3012:30
Sunset17:4723:47
Evening civil twilight18:1600:16

Current date and time
Zulu (UTC)  03-Mar-2021 10:19:51
Local (UTC-6)  03-Mar-2021 04:19:51
 
METAR
KMSN 
15nm NW 
030953Z AUTO 00000KT 10SM CLR M03/M04 A2988 RMK AO2 SLP126 T10331044
KJVL 
19nm SE 
030935Z AUTO 00000KT 10SM CLR 00/M02 A2989 RMK AO2
KC29 
19nm NW 
030955Z AUTO 00000KT 10SM CLR 00/M03 A2988 RMK AO1 T10031030
KRYV 
26nm NE 
030955Z AUTO 00000KT 10SM CLR M04/M04 A2987 RMK AO2 T10401040
KEFT 
26nm SW 
030955Z AUTO 21006KT 10SM CLR 01/M03 A2987 RMK AO2 T00111026
TAF
KMSN 
15nm NW 
021720Z 0218/0318 21016G26KT P6SM SKC FM030100 22013KT P6SM SKC WS020/23045KT FM030400 24008KT P6SM SKC WS020/25045KT FM030700 26006KT P6SM FEW250 FM031100 32004KT P6SM SCT070 FM031700 34005KT P6SM SCT026
KJVL 
19nm SE 
021720Z 0218/0318 22016G25KT P6SM SKC FM030000 21013KT P6SM SKC WS020/23045KT FM030500 23008KT P6SM SKC WS020/25045KT FM030800 25005KT P6SM FEW250 FM031600 35006KT P6SM SCT040
NOTAMs
Click for the latest NOTAMs
NOTAMs are issued by the DoD/FAA and will open in a separate window not controlled by AirNav.

 

 
 

Would you like to see your business listed on this page?

 If your business provides an interesting product or service to pilots, flight crews, aircraft, or users of the Matson Airport, you should consider listing it here.  To start the listing process, click on the button below
 
Add a business
 

Other Pages about Matson Airport

Update a link
 
Copyright © AirNav, LLC. All rights reserved. Privacy Policy  Contact